Location: Newark
(20.1200°S, 168.9600°E)
Time: 12:10:59
(UTC+00:00)

DX 1 - Visible Passes

Search period start: 21 January 2020 00:00
Search period end: 31 January 2020 00:00
Orbit: 620 x 630 km, 98.4° (Epoch: 21 January)

Date Brightness Start Highest point End Pass type
(mag) Time Alt. Az. Time Alt. Az. Time Alt. Az.
21 Jan ? 17:14:20 10° SSE 17:18:28 41° E 17:22:34 10° N visible
22 Jan ? 17:32:53 10° SSE 17:37:16 76° ENE 17:41:37 10° N visible
23 Jan ? 17:51:42 10° S 17:56:02 59° WSW 18:00:18 10° NNW visible
24 Jan ? 16:36:58 10° ESE 16:38:41 12° E 16:40:24 10° ENE visible
25 Jan ? 16:54:11 10° SE 16:57:32 21° E 17:00:52 10° NNE visible
26 Jan ? 17:12:18 10° SSE 17:16:22 37° E 17:20:25 10° NNE visible
27 Jan ? 17:30:49 10° SSE 17:35:11 68° ENE 17:39:31 10° N visible
28 Jan ? 17:49:35 10° S 17:53:58 67° WSW 17:58:17 10° NNW visible
29 Jan ? 16:35:30 10° E 16:36:35 11° E 16:37:39 10° ENE visible
30 Jan ? 16:52:17 10° SE 16:55:26 19° E 16:58:34 10° NE visible
